SHIYAN-12 01 (SY-12 01)

Last updated on Thu Jul 03 2025 00:02:48 GMT+0000 (Coordinated Universal Time)

1 50321U 21129A 25183.72801549 .00000116 00000+0 00000+0 0 9997 2 50321 2.7727 84.9176 0001482 260.3909 244.5464 1.00451983 13001
UTC large
Height (km)
Speed (km/s)
/
Latitude / Longitude
Inclination (degrees)
Orbital Period (minutes)
Azimuth
Elevation
Range (km)
Doppler Factor

Next 0 passes for location: London (51.5072 / 0.1276)

Sorry there are no passes over London.